Wind_Speed
23 25 27 29 30 31 31 32 32 32 32 32 32 32 31 31 31 32 32 32 32 33 34 35 35 36 36 36 36 36 36 37 37 38 38 38 39 40 40 40 41 41 41 41 40 40 39 39 38 37 37 37 37 37 37 36 35 34 34 34 34 34 35 35 36 36 36 37 36
17 19 21 23 25 27 28 30 31 31 32 32 32 32 32 31 31 32 32 32 33 34 34 35 35 36 36 36 36 36 36 37 37 37 38 38 39 39 39 40 40 41 41 41 41 39 39 38 37 37 37 36 36 36 36 37 36 35 35 36 35 34 34 34 36 37 37 37 37
15 16 17 18 20 22 24 27 28 29 30 31 31 32 32 32 32 32 32 33 33 34 34 34 35 36 36 36 36 36 37 37 37 37 38 38 38 39 39 39 40 40 41 41 41 40 39 38 37 37 37 37 37 37 37 37 36 35 35 36 36 34 33 33 34 35 35 36 36
14 14 15 15 16 18 20 22 24 26 27 28 29 30 31 31 32 32 33 33 33 34 34 35 36 36 36 36 36 36 37 37 37 37 38 38 38 38 39 39 40 40 41 41 41 41 40 39 38 36 36 37 37 38 38 36 35 35 35 36 35 34 34 33 34 34 34 34 35
14 14 14 14 15 15 17 18 20 22 23 25 26 28 29 30 30 31 32 32 33 34 34 35 35 35 35 36 36 36 37 37 37 37 37 38 38 38 38 38 39 40 40 41 41 41 41 40 38 36 36 37 37 38 39 37 35 35 34 34 34 34 34 34 34 33 33 33 34
15 14 14 14 14 14 15 16 17 19 20 22 24 26 27 27 28 29 30 31 32 32 33 33 34 34 35 35 36 36 36 37 37 37 37 38 38 38 38 38 39 39 40 40 41 41 41 40 38 36 36 36 37 38 38 37 35 34 34 33 33 33 33 34 34 33 33 33 33
15 15 14 14 14 14 14 14 15 16 17 19 21 23 24 25 26 27 28 29 30 31 31 32 32 33 33 34 35 35 36 36 36 37 37 37 38 38 38 38 38 39 39 40 40 40 40 39 37 36 36 35 35 37 38 37 35 34 34 33 33 32 33 33 33 33 33 33 34
14 14 14 14 13 14 14 14 14 15 16 17 19 20 22 23 24 25 26 27 28 29 30 31 31 32 33 33 34 34 35 35 36 36 37 37 37 38 38 38 38 38 39 39 39 39 39 38 37 37 36 35 34 35 36 36 36 35 35 35 34 33 33 33 34 34 33 34 35
13 13 12 13 13 13 13 13 14 14 15 16 17 18 19 21 22 23 25 26 27 28 28 29 30 31 31 32 33 34 34 35 35 36 36 37 37 37 38 37 37 38 38 39 39 39 39 38 37 37 37 36 36 36 36 36 36 36 37 36 35 33 33 33 33 33 34 34 35
12 11 11 11 11 11 11 12 12 13 13 14 15 16 17 18 20 21 23 24 25 26 27 28 29 29 30 31 32 33 34 34 35 35 36 37 37 37 38 38 38 38 38 38 38 38 38 38 37 38 38 38 38 37 37 36 35 36 37 36 35 34 34 33 33 33 33 34 34
9 9 8 8 8 8 9 9 10 10 11 12 13 14 15 16 17 19 20 21 23 25 26 27 28 28 29 31 32 33 33 34 34 35 36 36 37 38 38 38 39 39 38 38 38 37 37 36 37 38 39 39 39 38 37 36 36 36 37 37 36 35 35 35 34 33 33 33 34
6 6 5 6 6 6 6 7 7 8 8 9 10 11 12 13 14 16 17 19 21 23 24 25 26 27 28 30 31 32 33 33 34 35 35 36 37 38 39 39 39 39 39 39 38 37 36 36 38 39 40 40 39 37 37 37 36 36 37 37 37 36 36 36 35 34 33 33 33
4 4 4 4 4 5 5 6 6 7 7 8 9 9 10 11 12 13 15 17 19 20 21 22 24 26 27 29 30 31 32 32 33 34 35 36 37 38 39 39 40 39 39 39 38 37 36 37 38 40 40 40 39 38 38 38 38 37 37 37 37 36 37 37 37 35 34 33 33
4 4 4 4 4 4 5 5 6 6 7 8 8 9 10 11 11 12 13 15 16 18 19 20 22 23 25 27 28 30 31 32 32 33 35 36 37 38 38 39 39 39 39 39 38 38 38 38 39 40 41 41 41 40 40 39 39 39 39 38 38 38 38 38 37 36 35 34 34
6 6 5 6 6 6 6 6 7 7 8 9 9 10 11 12 12 12 13 15 16 17 18 19 20 21 23 25 27 28 30 31 32 33 34 36 37 37 38 38 39 39 39 38 38 38 39 40 40 41 41 42 42 42 41 40 40 40 40 40 40 40 39 39 38 36 36 36 35
8 8 8 8 8 8 7 8 8 9 10 10 11 11 12 13 13 14 15 16 16 17 18 19 20 21 22 23 24 26 28 29 31 32 34 35 36 37 37 38 38 39 39 39 39 39 40 40 41 41 42 42 42 42 41 41 41 41 41 41 41 41 41 40 38 37 37 37 36
11 10 10 10 10 10 10 10 10 10 11 12 12 13 13 14 15 15 16 17 18 18 19 20 21 21 22 23 23 25 27 28 30 31 33 34 36 36 37 38 38 39 39 39 39 40 40 41 41 41 41 42 42 42 41 41 41 41 41 42 42 42 41 40 39 38 37 37 37
14 13 13 12 13 12 12 12 12 12 12 13 13 14 14 15 16 17 18 18 19 20 21 21 22 23 23 24 24 25 26 28 29 31 32 33 35 36 37 38 38 39 39 39 40 40 41 41 41 41 41 41 41 41 41 41 41 41 41 42 42 42 42 41 40 38 38 37 38
17 16 15 15 15 15 15 15 14 14 14 15 15 15 16 16 17 18 19 19 20 21 22 23 24 24 25 25 26 26 26 27 29 30 31 33 34 35 36 37 38 39 39 39 40 41 41 41 41 41 41 41 41 41 41 41 41 41 41 41 41 42 42 42 41 40 39 39 39
20 19 18 17 17 17 17 17 17 17 17 17 17 17 18 18 18 19 20 21 21 21 22 24 25 26 26 27 27 28 28 28 29 30 31 32 33 34 36 37 38 38 39 39 40 41 41 41 41 41 41 41 41 41 41 41 41 41 41 41 41 41 42 42 41 41 41 40 40
21 21 20 19 19 19 20 20 20 20 20 20 20 20 20 20 20 21 21 22 22 23 24 25 26 27 27 28 28 29 29 29 29 30 31 32 32 34 35 36 37 38 38 39 40 40 41 41 41 41 41 41 41 41 41 40 40 40 40 40 40 41 41 41 41 41 41 41 41
23 22 21 21 21 22 22 22 23 23 23 23 23 22 22 22 22 23 23 23 24 25 25 26 26 27 28 29 29 30 30 30 31 31 31 32 33 33 34 34 35 36 37 38 39 40 40 40 41 41 40 40 41 41 41 40 40 40 39 39 40 40 40 41 41 41 42 42 42
24 23 22 22 23 23 24 24 25 26 26 26 25 25 25 25 25 25 25 26 26 26 27 27 28 28 29 29 30 30 31 32 32 32 33 33 33 34 34 34 35 36 37 38 39 39 39 40 40 40 40 40 40 41 41 40 40 39 39 39 39 39 40 40 40 41 41 42 42
26 25 24 24 24 25 25 26 27 28 28 28 28 28 28 27 27 28 28 28 28 29 29 29 29 30 30 30 31 31 31 32 33 34 34 34 34 34 34 34 35 35 36 37 38 38 38 38 39 39 39 39 40 40 40 40 39 39 38 38 38 38 38 39 40 40 41 41 42
28 28 27 26 26 27 27 28 29 29 30 30 30 30 30 30 30 30 30 30 31 31 31 31 31 31 31 32 32 32 32 32 33 34 34 35 35 35 34 34 34 35 35 36 36 36 36 35 35 36 37 37 38 38 38 39 39 38 38 38 37 37 37 37 38 39 40 41 41
30 30 30 29 29 29 30 30 31 31 32 32 32 32 32 32 32 32 33 33 33 32 32 33 33 32 32 32 32 32 32 32 33 33 34 34 35 35 35 34 34 35 35 36 35 34 33 33 32 32 33 34 35 36 36 37 37 38 37 37 36 36 35 35 35 36 38 39 39
32 32 32 32 32 33 33 33 33 34 34 34 34 33 33 33 33 34 34 34 34 34 34 34 34 33 32 32 32 32 32 33 33 33 33 34 34 35 35 35 35 35 36 35 34 33 32 32 31 31 31 32 33 34 34 34 36 36 36 36 35 35 34 34 35 35 35 35 36
34 34 34 35 35 36 36 36 36 36 36 36 36 35 35 35 35 35 35 35 35 35 35 35 34 32 31 31 31 32 32 33 32 33 33 33 34 34 35 35 35 35 36 35 34 32 32 31 31 31 32 32 33 34 34 34 34 34 34 34 34 34 34 34 34 33 33 32 32
35 35 36 36 37 37 38 38 38 39 39 38 38 38 37 37 36 36 36 36 36 35 35 34 33 32 31 31 32 32 32 32 32 32 33 33 33 34 35 35 35 35 35 34 33 32 31 31 30 31 31 32 32 32 31 31 31 31 31 32 32 33 33 34 33 32 31 30 30
36 36 37 37 38 38 39 39 40 40 40 40 39 39 38 38 37 36 36 36 36 35 35 34 33 32 32 32 32 32 32 32 32 32 32 32 33 34 34 34 34 35 35 34 33 32 31 31 30 30 31 31 32 31 30 29 29 29 30 30 31 32 32 33 33 32 31 30 29
37 37 37 38 38 39 40 40 40 40 40 40 39 38 38 38 37 37 36 35 35 35 35 34 33 33 33 33 32 32 32 32 32 32 32 32 33 33 34 34 35 35 35 34 33 32 31 31 30 30 30 30 31 32 31 30 29 29 29 30 31 31 32 32 32 32 32 31 30
38 38 38 38 38 39 40 40 40 40 39 38 38 38 38 38 38 37 36 35 34 34 34 34 33 33 33 33 32 32 32 32 32 32 32 32 32 33 34 34 34 34 34 34 33 32 31 31 30 30 30 30 31 32 32 31 30 29 29 30 32 33 33 33 32 32 32 32 31
38 38 37 37 37 38 39 39 39 39 38 38 37 37 38 38 38 37 35 34 33 33 32 32 32 32 32 32 32 31 31 31 31 32 32 32 32 32 33 33 33 33 33 32 32 31 31 30 30 30 30 30 30 31 32 32 30 29 28 29 32 33 34 34 33 32 32 32 31
37 37 36 36 37 37 38 38 39 39 38 37 37 37 38 37 37 36 35 34 33 32 31 31 32 32 32 31 31 31 31 31 31 31 32 32 32 32 32 33 32 32 32 31 31 31 30 30 29 29 29 29 29 30 31 32 30 28 27 28 29 31 33 33 33 33 32 32 31
36 36 35 35 36 36 37 37 38 38 38 37 37 38 38 37 36 36 35 34 32 31 31 32 32 32 32 31 31 31 31 32 32 32 32 32 32 32 32 33 33 33 33 32 32 31 31 30 30 29 28 28 28 29 29 30 29 29 28 27 28 29 31 32 33 33 33 33 32
34 34 33 34 34 35 35 36 37 37 36 36 37 37 38 38 37 36 35 33 31 30 30 31 32 32 31 31 31 31 31 31 31 31 31 31 31 31 32 33 34 34 33 32 32 32 31 31 30 29 28 27 27 27 27 27 27 28 28 27 27 28 29 30 31 31 32 33 33
32 32 31 32 32 33 34 34 34 34 35 35 36 37 37 37 37 36 34 32 30 29 30 30 31 31 31 31 31 31 31 31 30 31 31 31 31 31 32 33 34 34 34 33 32 32 31 31 30 29 28 27 26 26 25 25 25 25 26 26 27 27 27 27 28 29 31 32 33
31 31 31 31 31 32 33 33 33 33 34 35 36 36 36 36 35 35 33 30 28 28 29 30 30 31 31 31 31 31 31 31 30 30 30 31 31 31 32 33 34 34 34 33 32 31 31 30 29 28 27 26 26 25 24 23 23 24 24 25 26 26 26 26 26 26 28 31 32
31 31 30 30 31 32 32 32 33 33 34 35 35 35 35 35 34 33 31 29 27 27 28 29 31 31 32 31 31 31 31 30 30 29 29 30 31 31 32 32 33 33 33 32 31 30 30 29 29 28 27 26 26 25 24 23 22 23 24 24 24 25 26 26 25 25 26 29 30
31 31 31 31 31 31 32 32 33 33 33 34 34 34 34 34 33 32 31 29 28 28 29 30 31 32 32 31 30 30 30 30 30 30 30 30 31 31 31 31 32 33 33 32 31 30 29 29 29 28 27 26 26 25 23 22 22 23 23 24 23 23 23 23 24 24 24 26 28
32 32 31 31 32 32 32 32 33 33 33 33 34 34 34 33 31 30 29 28 29 29 30 30 31 31 31 30 29 28 29 30 30 30 30 30 31 31 31 31 32 33 33 33 31 30 29 28 28 27 27 26 25 25 23 22 21 22 22 23 23 22 21 22 22 23 23 25 26
Wind_Direction
284 279 275 272 269 267 265 265 265 265 264 264 263 263 262 261 259 260 261 260 259 259 260 261 262 263 263 263 261 259 258 257 255 253 251 250 249 249 248 247 246 245 244 244 244 243 242 241 239 239 239 240 240 241 241 241 240 238 237 237 237 237 237 238 238 238 237 236 236
300 294 288 283 278 274 271 269 269 268 267 266 266 266 265 263 262 262 263 262 262 262 263 264 265 265 265 264 263 262 260 259 257 256 254 252 251 251 250 248 247 246 245 245 244 243 241 240 239 238 238 239 240 240 241 241 240 239 238 238 237 237 238 238 238 238 238 238 237
307 305 301 295 289 282 277 273 272 272 271 271 270 269 267 266 265 264 265 265 266 265 265 265 267 267 266 266 265 263 262 260 259 258 256 255 253 252 250 249 248 247 246 245 244 243 242 240 238 237 237 238 239 240 241 241 240 239 238 238 238 237 237 238 239 239 238 238 237
305 305 305 304 301 295 288 282 279 278 278 277 276 274 271 269 268 267 268 268 268 266 266 267 268 269 268 267 266 264 263 262 261 259 257 256 255 253 252 250 249 248 247 246 245 243 242 240 238 237 237 238 238 239 240 241 240 239 238 239 238 237 237 238 239 238 238 237 237
307 304 303 302 303 301 298 293 289 286 285 284 281 278 276 273 272 271 270 270 269 269 270 271 270 270 270 269 267 266 265 264 262 260 259 258 257 256 254 251 250 249 248 247 245 244 242 240 238 236 236 237 238 240 241 241 240 239 238 239 238 237 237 238 238 238 238 238 237
309 306 303 300 299 299 299 298 297 295 293 290 286 283 280 278 277 275 274 273 274 276 276 275 273 272 271 270 269 268 267 265 263 261 260 259 259 257 255 253 251 250 249 247 246 245 243 240 237 236 237 237 239 240 241 241 239 238 238 238 238 237 237 237 238 238 238 237 237
309 306 304 301 299 298 297 298 298 299 298 295 292 289 287 285 283 281 280 280 281 281 280 278 276 274 273 272 271 270 269 267 266 264 262 261 260 259 257 255 253 251 249 248 246 244 242 240 237 236 237 237 238 240 240 240 238 237 237 237 237 237 237 237 237 237 237 237 237
307 305 303 301 299 298 297 296 297 297 298 297 296 295 293 292 290 288 286 285 284 283 283 281 279 277 276 275 273 272 271 270 268 266 265 263 262 261 259 257 255 252 250 249 246 244 242 239 237 236 236 236 237 239 239 239 237 236 236 236 237 237 236 236 236 236 236 236 236
307 306 304 303 301 299 298 297 296 296 296 296 296 296 296 295 294 292 290 288 288 288 287 284 283 281 280 278 276 275 274 272 270 268 267 265 264 262 261 259 256 254 252 250 247 244 242 239 237 236 236 237 237 238 238 238 236 236 236 236 236 237 236 236 235 235 235 235 235
309 309 309 309 307 306 303 302 300 299 297 296 296 296 296 295 295 294 293 293 294 292 290 287 286 284 282 280 278 277 275 274 272 270 268 267 265 263 262 260 258 255 253 251 248 245 242 239 237 237 237 237 237 238 238 237 236 235 236 236 236 235 235 235 234 234 234 234 234
311 314 316 317 317 316 315 312 310 308 305 303 302 301 299 297 296 295 296 295 294 292 291 290 289 286 284 282 280 279 277 275 273 271 269 268 266 265 264 262 260 257 255 253 249 246 242 239 238 238 238 239 238 238 238 237 236 235 235 236 235 235 234 234 233 232 232 232 233
310 317 322 326 328 328 327 326 325 322 318 315 314 311 308 304 301 299 297 294 292 291 291 291 291 289 287 284 283 281 279 277 274 272 270 269 268 267 265 263 261 259 257 254 251 246 243 240 239 239 239 239 239 238 237 237 236 235 235 236 236 235 234 234 232 231 231 231 232
301 309 318 324 329 331 331 334 335 334 330 328 326 323 319 315 311 305 300 295 293 292 292 291 291 290 288 286 285 282 280 278 276 273 271 270 269 268 266 264 262 260 258 255 252 248 244 242 241 240 240 240 239 239 238 237 236 235 235 235 235 234 234 234 233 231 230 229 230
279 285 294 302 309 315 321 328 331 331 331 331 331 329 325 323 319 312 305 301 298 297 296 294 292 290 289 288 287 285 282 280 277 274 272 271 269 268 266 264 263 261 259 256 253 249 246 244 243 242 242 241 240 240 239 238 236 236 236 235 235 234 234 234 233 231 229 228 229
267 271 277 284 290 297 305 312 318 322 324 326 328 328 326 324 323 318 313 308 306 305 303 300 297 294 292 290 289 287 285 281 278 275 273 271 269 267 266 264 263 261 259 257 254 251 248 246 245 244 243 243 242 241 240 239 238 237 237 236 236 236 236 235 233 231 229 228 228
266 268 271 276 281 287 294 301 307 312 316 319 323 323 322 321 322 319 316 313 312 310 308 305 304 301 299 295 292 289 286 283 279 276 273 271 269 268 266 264 263 262 260 258 256 254 251 249 248 246 245 244 244 243 241 240 239 238 238 238 238 237 237 236 234 232 230 229 228
268 270 271 275 279 284 289 294 299 303 308 312 315 316 317 317 317 316 314 312 311 310 309 308 307 305 302 299 296 292 288 284 281 277 274 272 270 269 267 266 265 264 262 260 257 255 254 252 250 248 247 245 245 244 243 242 240 239 239 239 239 238 238 237 235 233 231 229 229
271 272 274 277 280 284 287 290 293 297 301 305 308 310 311 312 312 312 311 310 309 308 307 307 306 304 302 300 298 295 290 286 282 279 276 274 273 271 270 268 267 266 264 262 259 258 256 254 253 250 248 247 246 245 244 243 242 241 240 240 240 239 239 238 236 234 232 230 230
272 274 275 278 281 283 286 288 290 292 295 299 301 304 306 308 308 308 308 308 308 306 304 303 303 302 301 300 299 296 293 288 285 282 280 278 276 274 272 271 270 268 266 263 261 260 259 257 255 252 250 248 246 245 244 244 243 242 242 241 241 240 240 239 238 236 234 232 231
272 273 275 278 281 283 284 286 288 290 292 294 296 299 301 304 305 304 305 306 307 305 303 301 300 300 300 300 299 297 295 292 289 286 284 282 279 277 275 273 272 270 268 265 263 262 260 258 256 254 251 249 247 246 245 244 243 243 242 242 241 241 240 240 239 237 236 234 233
271 272 274 277 280 282 283 284 287 288 290 291 292 294 297 300 301 302 303 305 305 304 302 300 299 299 299 299 298 297 296 294 291 288 286 284 282 280 278 276 274 272 270 267 265 263 261 259 257 255 252 250 248 246 245 244 243 243 242 242 241 241 241 240 239 238 237 235 234
270 272 274 277 280 282 283 284 286 287 287 288 289 291 294 296 298 300 302 304 303 303 302 301 301 300 300 299 298 298 297 295 292 290 288 286 284 283 281 279 276 273 271 268 266 265 263 261 258 256 253 251 249 247 246 244 243 243 242 242 242 241 241 240 240 239 238 237 235
271 273 275 279 281 283 284 286 287 287 287 286 287 289 291 293 296 298 300 301 301 302 302 302 302 302 302 301 300 298 296 295 293 291 289 287 285 284 283 280 277 273 271 269 268 266 264 261 259 257 254 251 249 248 246 245 244 243 243 242 242 241 241 240 240 239 238 238 237
272 274 277 280 282 284 286 288 288 288 288 287 287 287 289 291 293 295 297 298 300 301 302 303 303 304 303 302 300 298 296 294 292 291 290 288 286 285 283 280 277 274 272 271 269 267 264 262 260 258 255 252 250 248 247 245 244 243 242 242 242 241 241 240 240 239 239 238 237
274 275 277 280 282 285 287 289 290 291 291 290 289 289 288 289 291 293 294 296 298 299 301 302 303 304 303 302 301 299 296 294 292 291 290 289 288 286 283 281 277 275 273 272 270 268 265 262 259 257 256 253 251 249 248 246 244 243 243 242 241 241 241 240 240 239 239 238 237
275 276 277 279 282 284 286 288 290 292 293 294 294 292 290 289 289 290 292 294 296 298 300 301 302 302 302 301 300 299 297 295 293 292 290 289 289 287 284 281 278 276 275 274 272 269 265 261 258 256 255 254 252 250 248 246 245 244 243 242 242 241 240 240 240 239 239 239 238
276 277 278 280 281 283 285 287 289 292 294 295 296 296 294 292 290 290 290 292 294 296 298 299 300 301 301 300 298 297 296 295 293 292 290 289 287 286 284 282 280 278 276 275 273 270 267 264 260 257 255 254 252 249 247 246 245 244 243 242 241 241 240 240 240 240 239 239 238
276 278 279 280 281 283 284 286 288 290 292 294 296 297 297 296 293 290 289 290 292 294 296 298 299 300 300 298 297 296 295 294 293 291 290 288 286 285 283 282 280 279 278 277 274 272 270 267 264 261 258 255 253 250 248 246 245 244 242 241 241 240 240 240 241 240 239 239 238
277 279 280 281 282 283 284 285 286 288 290 292 294 297 298 298 295 292 289 288 289 292 294 296 298 298 297 296 296 296 294 293 292 290 289 287 286 284 283 282 280 280 279 277 275 272 271 268 266 264 261 258 255 252 248 244 242 241 240 240 239 239 239 240 240 240 239 238 237
279 279 280 280 281 282 283 284 286 287 289 290 292 295 297 297 296 292 289 287 287 289 292 294 295 295 294 295 295 294 293 292 291 289 287 286 284 284 283 282 281 281 280 278 276 274 271 269 267 265 263 260 258 255 251 245 241 238 238 238 238 238 238 238 238 238 238 237 236
281 280 280 280 281 281 283 284 285 286 287 289 291 293 295 295 294 292 289 286 286 288 290 293 293 292 293 295 295 294 293 292 291 289 287 285 284 283 283 283 282 282 281 280 277 275 272 270 268 266 264 261 259 258 255 250 244 239 236 236 237 238 237 237 237 236 236 235 235
283 282 281 280 280 281 282 284 285 286 287 289 290 292 293 293 293 291 289 286 285 286 289 290 290 291 292 294 294 294 293 292 290 289 287 285 284 284 283 283 282 282 282 280 278 276 273 271 269 267 264 262 260 259 257 254 250 244 238 237 238 239 238 236 237 235 234 233 232
285 284 283 282 281 282 284 285 286 287 288 290 291 291 292 292 292 291 289 286 285 285 287 288 289 289 290 291 292 293 292 291 290 288 287 286 285 284 283 283 283 282 282 281 279 277 274 272 269 267 265 263 262 260 258 257 254 248 242 238 239 240 239 237 235 233 232 230 229
288 287 285 284 284 285 286 288 289 290 291 291 291 291 291 291 291 290 289 287 286 285 286 287 287 287 288 290 290 291 290 290 289 288 287 287 286 285 283 283 282 282 282 281 280 277 275 272 269 267 265 263 262 261 260 258 256 252 247 242 240 240 240 238 236 233 231 229 227
291 289 288 287 287 287 289 291 292 293 292 292 291 291 291 290 289 288 288 288 287 286 286 287 287 287 288 289 289 290 289 289 289 289 288 288 287 286 284 283 283 283 284 283 281 278 275 272 270 267 265 263 261 260 259 257 256 254 252 247 244 242 242 241 238 235 232 229 227
293 291 289 288 288 289 290 292 293 292 291 290 290 290 290 289 289 289 289 288 287 285 285 286 287 287 287 288 289 289 289 288 288 289 289 288 287 286 285 284 285 286 286 284 282 279 276 272 269 267 265 263 261 259 257 255 255 254 253 251 248 246 244 243 240 237 233 230 227
294 291 289 288 288 289 289 290 290 289 288 288 288 288 288 288 288 289 289 287 285 284 284 285 286 286 287 288 289 289 289 288 287 287 288 288 288 287 286 286 286 286 287 285 283 279 276 273 269 266 264 262 260 258 255 254 253 252 252 251 251 250 248 245 243 239 234 230 227
294 292 290 289 288 288 289 289 288 286 286 286 286 287 287 287 287 287 287 285 283 282 283 285 285 286 288 289 289 289 288 287 287 287 287 288 288 287 287 287 287 287 287 286 283 280 277 272 269 265 262 260 258 256 254 252 251 250 249 250 250 250 250 249 246 241 236 231 228
295 293 292 290 289 289 289 288 287 286 286 286 286 287 287 286 285 285 285 283 282 282 283 284 285 287 289 290 289 288 288 288 288 287 287 287 288 288 288 287 287 287 287 286 283 280 276 272 269 265 261 258 256 255 253 251 249 249 249 249 249 249 249 248 245 241 236 233 230
297 295 293 292 290 290 290 289 288 287 287 287 286 286 286 285 285 284 284 283 282 283 284 285 287 289 291 290 289 288 288 288 288 289 288 288 288 289 289 288 288 288 288 287 284 281 276 272 268 264 260 257 255 253 251 250 249 249 249 248 248 247 247 245 243 240 235 232 231
298 297 296 294 293 292 291 290 290 289 289 288 287 286 286 286 285 283 282 282 283 285 286 288 290 291 290 289 288 287 287 288 289 290 290 290 290 290 289 288 288 288 288 288 285 282 277 273 268 263 260 256 253 251 249 247 247 247 248 248 247 247 246 245 241 238 233 230 227
Height
786 785 785 785 784 783 783 782 781 781 781 780 780 780 779 779 779 778 777 777 777 776 775 775 775 774 774 774 774 774 774 774 774 774 774 774 774 774 775 775 775 776 776 776 777 778 778 779 780 780 780 780 780 780 780 781 781 782 782 783 783 783 784 784 784 784 784 785 785
785 784 784 783 783 782 781 780 780 780 779 779 778 778 778 777 777 776 775 775 775 774 774 773 773 773 772 772 772 772 772 772 772 772 772 772 772 772 772 773 773 773 773 774 774 775 775 776 777 777 777 777 778 778 777 778 779 779 780 779 780 780 781 781 781 781 781 782 783
783 783 782 781 781 780 780 779 778 778 777 777 776 776 776 775 775 774 774 773 773 773 772 771 771 771 770 770 770 770 770 769 769 770 769 769 769 770 770 770 770 770 770 771 771 772 772 773 774 774 774 774 774 774 774 775 775 776 776 776 777 778 778 778 778 778 779 780 780
782 781 781 780 779 779 778 778 777 776 776 775 775 775 774 774 773 773 772 771 771 771 770 770 769 769 769 768 768 768 767 767 767 767 767 766 767 767 767 767 767 767 768 768 768 769 769 770 770 771 771 771 771 771 771 771 773 773 773 773 774 775 775 775 775 776 776 777 777
781 780 780 779 778 777 777 776 775 775 775 774 774 773 772 772 771 771 770 770 770 769 768 768 768 767 767 767 766 766 765 765 765 765 765 764 764 764 765 765 765 765 765 765 765 765 766 767 768 768 768 767 767 767 767 769 770 770 770 770 771 772 772 772 772 773 774 774 774
780 779 778 778 777 776 775 775 774 774 773 773 772 772 771 770 770 770 769 769 768 767 767 767 766 766 765 765 765 764 764 763 763 763 762 762 762 762 762 762 762 762 762 762 762 763 763 764 765 765 765 765 765 764 765 766 767 767 767 768 768 768 769 769 770 770 771 771 772
779 778 777 776 775 775 774 774 773 773 772 771 771 770 770 769 769 768 768 767 766 766 766 765 765 764 764 764 763 762 762 761 761 761 760 760 760 760 760 759 759 760 760 760 760 760 761 761 762 762 762 762 762 761 761 763 764 764 764 764 764 765 766 766 766 768 768 769 769
778 777 776 775 775 774 773 772 772 771 770 770 770 769 769 768 768 767 767 766 765 765 764 764 763 763 762 762 761 760 760 760 759 759 758 758 758 757 757 757 757 757 757 757 757 758 758 759 759 759 758 759 758 758 758 759 760 760 760 760 761 762 762 763 763 764 765 765 766
777 776 775 774 773 773 772 771 770 770 769 769 768 767 767 767 766 765 765 765 764 763 763 762 761 761 760 760 759 759 758 758 757 757 756 756 755 755 755 755 755 755 754 755 755 755 755 755 755 755 755 755 755 754 755 755 756 756 756 757 757 758 759 759 760 761 761 762 763
775 775 774 773 772 772 771 770 770 769 768 767 766 766 765 765 765 764 763 763 762 761 761 760 760 759 759 758 757 756 756 756 755 755 754 754 753 753 752 752 752 752 752 752 752 752 753 753 752 752 751 751 751 751 751 752 753 753 753 753 754 755 755 756 756 757 758 759 759
775 774 773 772 771 771 770 769 768 768 767 766 765 765 764 764 763 762 762 761 760 760 759 758 758 758 757 756 755 755 754 754 753 753 752 752 751 750 750 750 749 749 749 749 750 750 750 750 750 749 748 748 748 749 749 749 750 750 749 749 750 751 751 752 753 754 754 755 756
774 773 772 771 771 770 769 768 767 767 766 765 764 764 763 762 761 761 760 760 759 758 757 757 756 756 755 754 754 753 752 752 751 751 750 749 749 748 747 747 746 746 746 746 747 747 747 747 746 745 745 745 746 746 746 746 747 746 746 746 747 747 748 748 749 750 751 752 753
773 772 771 771 770 769 768 767 766 765 765 764 763 762 762 761 760 760 759 758 757 756 755 755 755 754 753 752 751 751 750 750 749 749 748 747 746 746 745 745 744 744 744 744 744 745 744 744 743 743 742 742 743 743 743 744 744 744 743 743 744 744 744 744 745 746 748 749 749
772 771 770 770 769 768 767 766 765 765 764 763 762 761 760 760 759 758 757 756 755 755 754 753 752 752 751 750 750 749 748 748 747 746 745 745 744 743 743 742 741 741 741 741 741 741 741 740 740 740 739 739 740 740 740 740 740 740 740 740 740 740 740 741 742 743 745 745 745
771 770 769 768 767 767 766 765 764 763 762 761 760 760 759 758 757 757 756 755 754 753 752 751 750 750 749 748 748 747 746 746 745 744 743 742 741 741 740 739 739 739 739 738 738 738 738 737 737 736 736 736 736 736 737 737 737 737 737 737 737 737 737 738 739 740 741 741 742
770 769 768 767 766 765 764 763 762 761 760 760 759 758 757 757 756 755 754 753 752 751 750 750 749 748 747 746 745 745 744 743 743 742 741 740 739 738 737 737 736 736 736 735 735 735 735 734 734 734 734 733 733 734 734 734 734 734 734 734 734 734 735 735 736 737 738 738 739
768 768 767 766 765 764 763 762 761 760 759 758 757 757 756 755 754 753 753 752 751 750 749 748 747 746 745 744 744 743 742 741 740 740 738 737 736 736 735 735 734 733 733 733 732 732 731 731 730 730 731 730 730 730 731 731 731 731 731 731 731 731 732 732 733 734 735 735 735
767 766 765 764 763 762 761 760 759 758 758 757 756 755 754 753 752 752 751 750 749 748 747 746 745 745 743 742 741 741 740 739 738 737 736 735 734 734 733 732 731 731 730 730 729 729 728 728 728 728 728 728 728 728 728 728 728 728 728 728 728 729 729 730 730 731 732 732 732
765 764 763 763 762 760 760 759 758 757 756 755 754 753 752 752 751 750 749 748 747 747 745 744 743 742 742 740 740 739 738 737 736 735 734 733 732 731 730 730 729 729 728 727 727 726 725 725 725 725 725 725 725 725 725 725 725 725 725 725 725 726 726 727 727 728 729 729 729
763 762 761 761 760 759 758 757 756 755 754 753 752 751 750 750 749 748 747 746 745 745 744 743 741 740 740 739 738 737 736 735 734 733 732 731 730 729 728 728 727 726 726 725 724 723 723 722 722 722 722 722 722 722 722 722 722 722 722 722 723 723 723 724 724 725 725 726 726
761 760 760 759 758 757 756 755 755 754 753 752 751 750 749 748 747 746 745 744 744 743 742 741 740 739 738 737 736 735 734 733 732 731 730 729 728 727 726 725 725 724 723 722 721 721 720 720 720 719 719 719 719 719 719 719 719 719 719 720 720 720 720 721 721 722 722 723 723
758 758 757 757 756 755 754 754 753 752 751 750 749 748 747 746 745 744 743 742 741 740 740 739 737 736 735 735 734 732 731 730 730 729 727 726 725 725 724 723 722 721 720 720 719 718 718 717 717 716 716 716 715 715 715 716 716 716 716 716 717 717 717 718 718 719 719 720 720
756 755 755 755 754 753 752 751 750 750 749 748 747 746 745 744 743 742 741 740 739 738 737 736 735 734 733 732 731 730 729 728 727 726 725 724 723 722 721 721 720 719 718 717 716 716 715 715 714 714 714 713 713 712 713 713 713 713 713 714 714 714 714 715 715 715 716 716 717
754 753 753 752 751 751 750 749 748 747 746 745 745 744 743 742 741 740 739 738 737 736 735 734 733 732 731 730 729 728 727 725 724 723 722 722 721 720 719 718 717 716 715 714 714 713 713 712 711 711 710 710 710 710 710 710 710 710 710 710 711 711 711 712 712 713 713 713 714
751 750 750 750 749 748 748 747 746 745 744 743 742 741 740 740 739 738 737 735 735 733 732 731 730 729 728 727 726 725 724 723 722 721 720 719 718 717 716 715 715 713 712 711 711 711 710 710 709 708 708 707 707 707 707 707 707 707 708 708 708 709 709 709 709 710 710 710 711
749 748 748 747 746 745 745 744 743 742 741 740 740 739 738 737 736 735 734 733 732 731 730 729 727 726 725 724 723 722 721 720 720 718 717 716 715 714 714 713 712 710 710 709 708 708 708 708 708 707 706 705 705 705 704 704 704 705 705 705 705 706 706 706 706 707 707 707 708
747 746 745 745 744 743 742 741 740 740 739 738 737 736 735 734 733 732 731 730 729 728 727 726 725 724 723 722 720 719 718 718 717 716 715 714 712 711 710 710 709 708 707 706 706 706 706 706 706 705 705 704 702 701 701 701 701 702 702 703 703 703 703 703 704 704 705 705 706
745 744 743 742 741 740 739 739 738 737 736 735 734 733 732 731 730 729 728 727 726 725 725 723 722 721 720 719 718 716 715 715 714 713 712 711 710 709 708 707 706 705 704 704 703 703 703 703 703 703 703 702 700 699 698 698 698 699 699 700 700 700 700 700 701 701 702 703 704
742 741 740 740 738 737 736 736 735 734 733 732 731 730 729 728 727 726 725 724 723 723 722 721 720 719 718 716 715 714 713 712 711 710 710 709 707 706 705 704 703 702 702 701 701 701 701 700 700 700 700 700 699 697 696 695 695 696 696 696 697 697 697 698 698 699 700 701 701
740 739 738 737 735 735 734 733 732 731 730 729 728 727 726 725 724 723 722 721 720 720 719 718 717 716 715 714 712 711 710 709 709 708 707 706 705 703 702 702 701 700 699 699 699 699 698 698 698 697 697 697 697 696 694 693 692 693 693 693 693 694 694 695 695 696 697 698 699
737 736 735 734 733 732 731 730 729 728 727 726 725 724 723 722 721 720 719 718 717 716 716 716 715 714 712 711 710 709 708 707 706 705 705 703 702 701 700 699 698 697 696 696 696 696 695 695 695 695 694 694 694 693 692 691 690 690 690 690 690 690 690 691 692 693 694 695 696
735 734 733 732 730 729 728 727 726 725 725 724 723 721 720 719 718 716 715 715 714 714 713 713 712 711 710 708 707 706 705 704 703 702 702 701 700 698 697 696 695 694 694 694 693 693 693 692 692 691 691 691 691 690 689 689 688 687 686 686 686 687 687 688 688 689 690 691 693
733 732 731 730 728 727 726 725 724 723 722 721 720 719 717 716 715 714 713 712 711 711 710 710 710 709 707 706 705 704 702 702 701 700 699 698 697 695 694 693 692 692 691 691 690 690 690 689 689 689 688 688 688 687 686 686 685 685 684 683 683 683 684 684 685 685 686 688 689
731 730 729 728 726 725 724 723 722 721 720 719 717 716 715 714 712 711 710 709 709 709 708 708 707 706 705 704 702 701 700 699 698 697 696 695 695 693 692 690 690 689 689 689 688 688 687 686 686 686 685 685 685 684 684 683 683 682 681 681 680 681 681 681 681 682 683 685 686
730 728 727 725 724 723 722 721 720 719 718 716 715 713 712 711 710 709 707 707 706 706 705 705 704 703 702 701 700 699 697 696 695 695 694 693 692 691 689 688 686 686 686 686 685 685 684 684 683 683 683 682 682 681 681 680 680 680 679 679 678 678 678 679 679 679 680 681 683
727 726 725 723 722 721 720 719 718 717 715 714 712 711 709 708 707 706 705 705 704 704 703 702 701 700 700 698 697 696 695 694 693 692 691 690 690 688 686 685 683 683 683 683 682 682 681 681 680 680 680 680 679 678 678 678 677 677 677 677 676 676 676 676 676 677 677 678 680
725 724 723 721 720 719 717 716 715 714 713 711 710 708 707 706 705 704 703 703 702 701 700 700 699 698 696 695 694 693 692 692 691 690 688 688 687 686 684 682 680 680 680 680 679 679 678 678 677 677 677 677 676 675 675 675 675 675 675 674 674 674 674 674 674 674 675 675 676
724 722 721 720 718 717 715 714 713 712 710 708 707 706 705 704 702 701 701 701 700 699 698 697 696 695 694 693 691 690 690 689 688 687 686 685 684 683 682 680 678 677 676 676 676 675 675 675 675 675 675 674 673 673 673 672 672 672 672 672 672 672 672 672 672 672 672 672 673
721 720 719 718 716 715 714 712 711 709 708 706 705 704 702 701 700 699 699 699 698 697 696 695 693 692 691 690 689 688 686 686 685 685 684 682 681 680 679 678 675 674 674 674 673 673 672 672 672 672 672 671 671 670 670 670 670 669 669 669 669 669 670 670 670 670 670 670 671
719 718 717 716 715 713 711 710 708 707 705 704 703 701 700 699 698 697 697 696 696 695 694 692 690 689 688 687 686 685 684 683 683 682 681 680 679 678 677 675 673 671 671 670 670 670 669 669 669 669 669 669 668 668 668 667 667 667 667 667 667 667 667 667 667 667 667 667 669
717 716 715 714 713 711 710 708 706 705 703 702 700 699 698 697 696 695 695 694 693 692 691 690 688 686 685 685 684 683 682 680 680 679 678 677 676 675 674 673 671 669 668 667 667 667 667 666 666 666 666 666 665 665 665 665 665 665 664 665 665 665 665 665 665 665 665 665 666